PBO Station Position Time Series. Reference Frame : NAM14
Format Version,1.1.1
4-character ID,P269
Station name,CowboyCampCN2008
Begin Date, 2008-04-30
End Date, 2023-06-26
Release Date, 2023-06-27
Reference position, 38.9995252938 North Latitude, -122.3545546164 East Longitude, 298.22932 meters elevation,
Date, North (mm), East (mm), Vertical (mm), North Std. Deviation (mm), East Std. Deviation (mm),              Vertical Std. Deviation (mm), Quality,
2008-04-30,0.00, 0.00, 0.00, 2.17, 1.67, 7.94, repro,
2008-05-01,1.10, 1.65, -9.61, 2.17, 1.68, 7.97, repro,
2008-05-02,1.15, 1.83, -4.63, 2.25, 1.76, 8.35, repro,
2008-05-03,-0.13, -0.41, -9.41, 2.18, 1.66, 7.92, repro,
2008-05-04,3.00, 0.61, -7.29, 2.14, 1.62, 7.94, repro,
2008-05-05,0.61, 0.28, -3.55, 2.18, 1.66, 7.91, repro,
2008-05-06,1.25, 1.57, -9.72, 2.21, 1.71, 8.19, repro,
2008-05-07,-0.17, -0.72, -5.52, 2.23, 1.75, 8.29, repro,
2008-05-08,-0.20, -0.41, -2.79, 2.29, 1.76, 8.28, repro,
2008-05-09,0.48, 1.14, -9.65, 2.23, 1.71, 8.11, repro,
2008-05-10,0.69, 1.39, -15.64, 2.19, 1.67, 7.98, repro,
2008-05-11,1.10, 2.46, -7.73, 2.18, 1.68, 7.98, repro,
2008-05-12,1.13, -0.02, -5.31, 2.20, 1.71, 8.25, repro,
2008-05-13,0.19, 0.27, -6.13, 2.25, 1.69, 8.17, repro,
2008-05-14,-0.17, -0.96, -13.37, 2.20, 1.67, 7.97, repro,
2008-05-15,1.76, 2.75, -12.19, 2.16, 1.64, 7.96, repro,
2008-05-16,-0.04, 1.47, -8.02, 2.21, 1.67, 8.03, repro,
2008-05-17,0.52, 2.56, -5.49, 2.23, 1.73, 8.20, repro,
2008-05-18,-0.58, 1.00, -11.17, 2.16, 1.66, 7.91, repro,
2008-05-19,0.37, 1.73, -5.26, 2.13, 1.63, 7.86, repro,
2008-05-20,-3.11, 0.02, 0.85, 2.17, 1.65, 8.04, repro,
2008-05-21,1.38, 2.04, -9.84, 2.13, 1.65, 7.96, repro,
2008-05-22,-0.05, -0.31, 2.12, 2.16, 1.69, 8.08, repro,
2008-05-23,0.62, 1.34, 2.35, 2.13, 1.69, 8.14, repro,
2008-05-24,0.28, -0.27, -10.38, 2.11, 1.63, 7.83, repro,
2008-05-25,-0.36, 1.43, -7.55, 2.20, 1.69, 8.03, repro,
2008-05-26,-0.40, 0.37, -0.15, 2.14, 1.67, 8.01, repro,
2008-05-27,-0.04, 1.87, -8.89, 2.15, 1.64, 7.90, repro,
2008-05-28,0.81, 3.15, -14.72, 2.16, 1.65, 8.01, repro,
2008-05-29,2.28, 1.41, -14.62, 2.16, 1.66, 8.00, repro,
2008-05-30,0.88, 2.34, -11.46, 2.12, 1.63, 7.83, repro,
2008-05-31,2.25, 1.95, -7.41, 2.12, 1.63, 7.80, repro,
2008-06-01,2.43, 1.92, -7.01, 2.15, 1.64, 7.96, repro,
2008-06-02,2.69, 1.94, -5.86, 2.15, 1.65, 7.95, repro,
2008-06-03,0.63, 1.97, 0.17, 2.20, 1.69, 8.27, repro,
2008-06-04,1.54, 2.16, -8.38, 2.17, 1.66, 7.97, repro,
2008-06-05,2.15, -0.13, -11.09, 2.18, 1.67, 7.98, repro,
2008-06-06,1.73, -1.83, 1.40, 2.16, 1.64, 7.95, repro,
2008-06-07,-0.37, 0.45, -2.97, 2.20, 1.71, 8.17, repro,
2008-06-08,1.18, 1.67, -8.70, 2.20, 1.68, 8.16, repro,
2008-06-09,0.78, 1.06, -1.58, 2.17, 1.65, 7.95, repro,
2008-06-10,0.49, -0.22, -7.02, 2.12, 1.62, 7.82, repro,
2008-06-11,1.04, 0.32, -7.87, 2.11, 1.61, 7.73, repro,
2008-06-12,1.46, 2.00, -6.69, 2.17, 1.70, 7.99, repro,
2008-06-13,1.40, 1.01, -8.63, 2.14, 1.62, 7.81, repro,
2008-06-14,1.33, 2.10, -6.67, 2.18, 1.65, 7.84, repro,
2008-06-15,0.29, 1.36, -4.13, 2.19, 1.65, 7.86, repro,
2008-06-16,0.55, -1.53, -0.01, 2.11, 1.61, 7.75, repro,
2008-06-17,2.34, 1.06, -4.56, 2.18, 1.64, 7.89, repro,
2008-06-18,1.89, 1.59, -10.71, 2.18, 1.65, 7.85, repro,
2008-06-19,1.58, -0.25, 0.20, 2.24, 1.78, 8.18, repro,
2008-06-20,1.02, 2.27, -11.48, 2.13, 1.61, 7.72, repro,
2008-06-21,0.03, 1.02, -3.57, 2.11, 1.62, 7.77, repro,
2008-06-22,0.23, 2.54, -10.22, 2.18, 1.70, 8.10, repro,
2008-06-23,0.93, 0.32, -1.52, 2.12, 1.62, 7.81, repro,
2008-06-24,2.75, 1.17, 0.97, 2.13, 1.61, 7.75, repro,
2008-06-25,1.08, 1.27, -4.83, 2.16, 1.66, 7.87, repro,
2008-06-26,1.97, 0.92, 0.11, 2.14, 1.66, 7.88, repro,
2008-06-27,0.20, 1.11, 5.11, 2.14, 1.61, 7.74, repro,
2008-06-28,0.32, 0.88, -7.25, 2.18, 1.66, 8.03, repro,
2008-06-29,3.31, 0.83, -3.14, 2.17, 1.66, 8.00, repro,
2008-06-30,2.58, -0.96, -2.97, 2.17, 1.66, 7.98, repro,
2008-07-01,1.40, -0.03, -1.34, 2.17, 1.66, 7.91, repro,
2008-07-02,0.78, 0.82, -5.74, 2.16, 1.67, 7.91, repro,
2008-07-03,1.61, 1.56, 11.06, 2.20, 1.68, 8.10, repro,
2008-07-04,3.49, 2.94, -8.88, 2.12, 1.61, 7.79, repro,
2008-07-05,1.92, 1.13, -0.80, 2.14, 1.61, 7.81, repro,
2008-07-06,2.55, 0.28, 2.07, 2.15, 1.67, 7.86, repro,
2008-07-07,0.54, 0.81, -2.79, 2.26, 1.73, 8.28, repro,
2008-07-08,0.05, 1.20, -0.61, 2.15, 1.63, 7.81, repro,
2008-07-09,0.89, 2.18, 3.82, 2.16, 1.61, 7.85, repro,
2008-07-10,-0.02, 0.37, -0.95, 2.19, 1.64, 7.89, repro,
2008-07-11,1.97, 0.62, 0.44, 2.19, 1.65, 7.87, repro,
2008-07-12,0.48, -0.57, 9.23, 2.13, 1.62, 7.80, repro,
2008-07-13,1.18, 0.34, -5.84, 2.20, 1.68, 8.08, repro,
2008-07-14,-0.91, 0.51, 8.22, 2.18, 1.67, 7.93, repro,
2008-07-15,2.50, -0.88, 8.05, 2.21, 1.65, 8.01, repro,
2008-07-16,-0.01, 2.76, 6.10, 2.14, 1.63, 7.90, repro,
2008-07-17,1.29, 0.83, -0.90, 2.16, 1.69, 8.02, repro,
2008-07-18,0.52, -0.41, 6.20, 2.27, 1.67, 8.22, repro,
2008-07-19,1.79, 0.76, 6.20, 2.23, 1.63, 8.07, repro,
2008-07-20,1.05, 0.05, 11.09, 2.21, 1.68, 8.07, repro,
2008-07-21,0.79, 0.90, 8.50, 2.28, 1.77, 8.15, repro,
2008-07-22,1.80, -0.36, 4.85, 2.12, 1.61, 7.77, repro,
2008-07-23,-1.09, 2.21, 2.02, 2.14, 1.62, 7.79, repro,
2008-07-24,0.16, 1.32, 5.88, 2.14, 1.61, 7.79, repro,
2008-07-25,0.01, -0.15, 8.93, 2.18, 1.63, 7.78, repro,
2008-07-26,0.09, -0.26, 3.12, 2.19, 1.66, 7.96, repro,
2008-07-27,-0.18, -0.10, 7.70, 2.18, 1.64, 7.87, repro,
2008-07-28,-0.20, 0.87, 17.30, 2.24, 1.66, 7.88, repro,
2008-07-29,-1.07, -0.35, 14.84, 2.19, 1.63, 8.08, repro,
2008-07-30,-0.81, 0.47, 10.28, 2.22, 1.62, 8.07, repro,
2008-07-31,-1.06, 1.58, 8.10, 2.19, 1.63, 7.89, repro,
2008-08-01,0.86, 2.15, 13.75, 2.18, 1.67, 8.07, repro,
2008-08-02,-0.83, 0.23, 8.65, 2.26, 1.69, 7.98, repro,
2008-08-03,1.12, 0.04, 0.02, 2.19, 1.69, 7.87, repro,
2008-08-04,0.39, 0.81, 2.92, 2.15, 1.65, 7.78, repro,
2008-08-05,2.00, 1.34, -0.60, 2.16, 1.60, 7.85, repro,
2008-08-06,-0.68, 0.74, -1.27, 2.27, 1.65, 8.15, repro,
2008-08-07,1.69, -1.72, 7.80, 2.32, 1.72, 8.23, repro,
2008-08-08,-0.06, 0.72, 2.68, 2.34, 1.76, 8.30, repro,
2008-08-09,-0.05, -1.34, 9.65, 2.26, 1.68, 8.09, repro,
2008-08-10,0.16, 0.19, 6.81, 2.20, 1.61, 7.91, repro,
2008-08-11,2.02, 0.58, -0.49, 2.24, 1.69, 8.22, repro,
2008-08-12,1.23, -0.36, 3.90, 2.22, 1.66, 8.25, repro,
2008-08-13,0.36, 0.78, 8.70, 2.28, 1.69, 8.17, repro,
2008-08-14,2.34, 0.17, -1.11, 2.21, 1.65, 8.06, repro,
2008-08-15,1.22, 1.47, 2.08, 2.21, 1.63, 8.05, repro,
2008-08-16,1.13, 0.20, 5.85, 2.24, 1.64, 8.16, repro,
2008-08-17,-0.39, 0.25, 17.25, 2.34, 1.69, 8.22, repro,
2008-08-18,2.62, -0.20, 12.77, 2.21, 1.64, 8.01, repro,
2008-08-19,0.67, 1.28, 6.48, 2.19, 1.65, 8.03, repro,
2008-08-20,0.94, 1.31, 8.54, 2.19, 1.65, 7.99, repro,
2008-08-21,1.96, -1.06, 13.51, 2.24, 1.67, 8.21, repro,
2008-08-22,2.15, 1.51, 3.79, 2.36, 1.69, 8.24, repro,
2008-08-23,-0.16, -0.54, 5.18, 2.22, 1.67, 8.18, repro,
2008-08-24,-0.33, 0.11, 9.37, 2.22, 1.65, 8.02, repro,
2008-08-25,-1.94, 0.72, 5.36, 2.25, 1.67, 8.20, repro,
2008-08-26,-0.18, 0.16, 10.15, 2.20, 1.65, 8.03, repro,
2008-08-27,0.35, -0.10, 12.55, 2.24, 1.68, 8.20, repro,
2008-08-28,0.35, -0.20, 9.46, 2.35, 1.73, 8.42, repro,
2008-08-29,1.94, 1.86, 6.60, 2.24, 1.70, 8.25, repro,
2008-08-30,-1.23, -2.16, 14.00, 2.24, 1.68, 8.12, repro,
2008-08-31,-0.16, 0.58, 12.75, 2.25, 1.66, 8.15, repro,
2008-09-01,0.67, 0.06, 0.25, 2.23, 1.66, 8.15, repro,
2008-09-02,-0.96, -0.11, 1.96, 2.22, 1.67, 8.13, repro,
2008-09-03,0.43, 0.53, 1.64, 2.30, 1.71, 8.25, repro,
2008-09-04,2.26, -0.16, -1.38, 2.34, 1.79, 8.61, repro,
2008-09-05,0.32, 0.67, 0.33, 2.35, 1.73, 8.38, repro,
2008-09-06,0.96, -0.84, 1.15, 2.21, 1.66, 8.05, repro,
2008-09-07,-1.30, 0.40, 5.32, 2.22, 1.67, 8.13, repro,
2008-09-08,-0.54, 0.37, 2.59, 2.31, 1.72, 8.44, repro,
2008-09-09,1.52, 0.60, 3.78, 2.26, 1.66, 8.17, repro,
2008-09-10,1.87, 1.51, 5.48, 2.34, 1.73, 8.37, repro,
2008-09-11,0.14, -0.94, 5.40, 2.27, 1.69, 8.24, repro,
2008-09-12,0.36, -1.24, 9.67, 2.22, 1.66, 8.01, repro,
2008-09-13,-0.45, 0.50, 5.22, 2.25, 1.70, 8.25, repro,
2008-09-14,0.78, 0.27, 5.81, 2.25, 1.68, 8.29, repro,
2008-09-15,-1.66, 0.36, 10.05, 2.20, 1.64, 8.05, repro,
2008-09-16,-0.77, 0.29, 6.57, 2.26, 1.73, 8.31, repro,
2008-09-17,-0.36, -1.87, 1.23, 2.34, 1.72, 8.42, repro,
2008-09-18,0.65, 0.77, 1.35, 2.24, 1.63, 8.01, repro,
2008-09-19,0.69, 0.57, -0.48, 2.23, 1.68, 8.06, repro,
2008-09-20,0.97, -0.27, 10.74, 2.17, 1.62, 7.91, repro,
2008-09-21,-0.45, -0.55, 5.60, 2.24, 1.65, 8.06, repro,
2008-09-22,1.35, 0.71, 4.06, 2.24, 1.67, 8.28, repro,
2008-09-23,-0.15, 0.81, 2.79, 2.25, 1.65, 7.97, repro,
2008-09-24,-0.10, 0.87, 9.60, 2.29, 1.72, 8.39, repro,
2008-09-25,0.72, 0.68, 2.36, 2.21, 1.63, 7.99, repro,
2008-09-26,-0.79, -0.63, 12.05, 2.25, 1.66, 8.17, repro,
2008-09-27,-0.92, 0.18, 10.86, 2.24, 1.67, 8.10, repro,
2008-09-28,-0.18, 0.06, 1.86, 2.24, 1.67, 8.15, repro,
2008-09-29,0.65, 0.18, -0.24, 2.27, 1.73, 8.26, repro,
2008-09-30,-0.84, -0.62, 2.18, 2.22, 1.65, 8.16, repro,
2008-10-01,1.47, 0.73, 9.30, 2.21, 1.62, 8.01, repro,
2008-10-02,1.55, 1.24, 12.00, 2.25, 1.67, 8.22, repro,
2008-10-03,-0.95, -1.34, 2.40, 2.24, 1.68, 8.20, repro,
2008-10-04,2.68, -2.84, 9.61, 2.25, 1.66, 8.30, repro,
2008-10-05,-0.12, -0.55, 1.84, 2.22, 1.65, 8.11, repro,
2008-10-06,0.02, 1.61, 5.78, 2.22, 1.61, 7.81, repro,
2008-10-07,0.41, 0.75, -1.22, 2.23, 1.63, 8.12, repro,
2008-10-08,1.82, -0.00, -3.11, 2.20, 1.66, 8.04, repro,
2008-10-09,-0.51, -0.27, -2.16, 2.12, 1.60, 7.73, repro,
2008-10-10,-1.70, 0.99, -2.40, 2.13, 1.61, 7.74, repro,
2008-10-11,0.02, -0.46, 0.64, 2.17, 1.63, 7.88, repro,
2008-10-12,-0.04, 0.31, -1.72, 2.12, 1.60, 7.70, repro,
2008-10-13,0.22, 2.18, -2.78, 2.13, 1.61, 7.80, repro,
2008-10-14,-0.87, 0.30, 2.00, 2.11, 1.60, 7.76, repro,
2008-10-15,-0.06, -0.28, 0.21, 2.18, 1.62, 7.86, repro,
2008-10-16,-1.11, 0.87, 1.26, 2.32, 1.75, 8.23, repro,
2008-10-17,-0.66, -0.24, -1.21, 2.28, 1.74, 8.22, repro,
2008-10-18,0.58, 0.94, -0.60, 2.14, 1.60, 7.75, repro,
2008-10-19,-1.30, -0.72, 0.32, 2.12, 1.61, 7.77, repro,
2008-10-20,-0.19, 0.11, 7.65, 2.12, 1.61, 7.76, repro,
2008-10-21,-0.86, 0.98, -6.36, 2.19, 1.68, 8.17, repro,
2008-10-22,-0.89, 1.12, -0.23, 2.18, 1.65, 7.98, repro,
2008-10-23,-0.59, 0.75, 4.31, 2.16, 1.64, 7.78, repro,
2008-10-24,-0.27, 0.28, 4.21, 2.13, 1.63, 7.79, repro,
2008-10-25,0.50, 0.98, 3.68, 2.15, 1.63, 7.79, repro,
2008-10-26,0.09, 0.72, -6.77, 2.16, 1.73, 7.98, repro,
2008-10-27,-0.42, 0.37, -2.51, 2.20, 1.64, 8.06, repro,
2008-10-28,-0.52, -0.58, -5.40, 2.28, 1.70, 8.04, repro,
2008-10-29,-1.18, -0.27, 1.20, 2.29, 1.72, 8.04, repro,
2008-10-30,-0.22, 1.40, 2.84, 2.13, 1.60, 7.77, repro,
2008-10-31,2.20, 1.18, -8.17, 2.23, 1.66, 8.00, repro,
2008-11-01,-0.94, 1.84, 2.01, 2.17, 1.62, 7.89, repro,
2008-11-02,-1.35, 1.59, -0.55, 2.19, 1.66, 8.09, repro,
2008-11-03,0.04, -0.97, -5.07, 2.21, 1.66, 7.98, repro,
2008-11-04,0.37, -4.35, 8.94, 2.14, 1.62, 7.82, repro,
2008-11-05,0.19, -0.31, -3.41, 2.15, 1.62, 7.86, repro,
2008-11-06,-0.15, 1.04, -8.35, 2.17, 1.66, 8.03, repro,
2008-11-07,-0.76, 0.88, -13.19, 2.18, 1.67, 8.09, repro,
2008-11-08,-1.41, 0.24, -11.37, 2.22, 1.67, 8.16, repro,
2008-11-09,-1.17, -1.73, -0.46, 2.17, 1.67, 8.05, repro,
2008-11-10,0.86, 0.11, -4.53, 2.17, 1.69, 8.10, repro,
2008-11-11,-0.07, 0.04, -10.17, 2.19, 1.70, 8.31, repro,
2008-11-12,-1.06, 0.64, -1.65, 2.24, 1.63, 8.23, repro,
2008-11-13,-0.90, 1.17, -3.45, 2.18, 1.63, 8.03, repro,
2008-11-14,0.66, 0.62, -7.07, 2.18, 1.67, 8.00, repro,
2008-11-15,0.27, 1.60, -4.64, 2.15, 1.65, 7.89, repro,
2008-11-16,-0.65, 0.52, -3.59, 2.21, 1.74, 8.19, repro,
2008-11-17,0.36, 1.01, -5.81, 2.23, 1.73, 8.21, repro,
2008-11-18,-1.73, 1.22, -5.92, 2.20, 1.75, 8.22, repro,
2008-11-19,-0.42, 0.67, -8.01, 2.19, 1.68, 8.06, repro,
2008-11-20,-1.03, 1.08, -1.09, 2.23, 1.75, 8.24, repro,
2008-11-21,-1.69, 1.45, -4.24, 2.32, 1.88, 8.61, repro,
2008-11-22,-0.78, 2.03, 4.50, 2.22, 1.75, 8.29, repro,
2008-11-23,-0.18, -0.20, -2.82, 2.23, 1.72, 8.25, repro,
2008-11-24,-1.05, -0.05, -4.03, 2.25, 1.78, 8.37, repro,
2008-11-25,-0.32, 0.09, 2.74, 2.13, 1.64, 7.88, repro,
2008-11-26,0.01, 0.76, -0.98, 2.14, 1.62, 7.81, repro,
2008-11-27,0.76, 0.18, -8.32, 2.17, 1.67, 8.09, repro,
2008-11-28,0.41, 0.20, -2.34, 2.22, 1.75, 8.28, repro,
2008-11-29,-2.52, 1.78, -0.70, 2.19, 1.76, 8.27, repro,
2008-11-30,-0.79, 0.61, 3.79, 2.11, 1.60, 7.73, repro,
2008-12-01,-0.15, 1.34, -3.01, 2.14, 1.61, 7.82, repro,
2008-12-02,-0.46, 2.08, 8.76, 2.15, 1.66, 7.93, repro,
2008-12-03,0.18, 1.02, -0.60, 2.21, 1.70, 8.11, repro,
2008-12-04,-0.34, 1.31, -0.12, 2.17, 1.66, 8.02, repro,
2008-12-05,-0.73, -0.05, -0.85, 2.12, 1.65, 7.80, repro,
2008-12-06,0.27, 0.46, 1.83, 2.21, 1.75, 8.21, repro,
2008-12-07,-0.24, -0.06, 2.10, 2.21, 1.75, 8.21, repro,
2008-12-08,-0.60, -0.48, -7.40, 2.19, 1.75, 8.26, repro,
2008-12-09,0.58, -0.42, -7.87, 2.13, 1.64, 7.86, repro,
2008-12-10,1.13, -0.22, -9.08, 2.14, 1.64, 7.73, repro,
2008-12-11,-0.47, -0.08, -1.20, 2.21, 1.67, 7.95, repro,
2008-12-12,-0.28, 0.15, 3.12, 2.22, 1.71, 8.20, repro,
2008-12-13,-1.36, 0.82, 2.13, 2.16, 1.68, 8.01, repro,
2008-12-14,2.00, -0.22, -0.42, 2.14, 1.62, 7.78, repro,
2008-12-15,0.54, -1.97, 1.72, 2.14, 1.61, 7.74, repro,
2008-12-16,-1.07, 0.55, 3.79, 2.11, 1.59, 7.60, repro,
2008-12-17,-0.93, 1.39, 0.47, 2.17, 1.60, 7.77, repro,
2008-12-18,-0.30, 0.91, 3.14, 2.12, 1.61, 7.79, repro,
2008-12-19,-1.66, -1.40, 5.50, 2.22, 1.65, 8.22, repro,
2008-12-20,-1.41, -0.23, -5.28, 2.17, 1.66, 8.03, repro,
2008-12-21,-0.04, -0.74, -5.17, 2.14, 1.60, 7.77, repro,
2008-12-22,-0.58, 0.90, 3.07, 2.21, 1.65, 7.98, repro,
2008-12-23,-0.07, 0.58, 2.43, 2.14, 1.63, 7.89, repro,
2008-12-24,-1.01, -0.14, 2.54, 2.13, 1.61, 7.80, repro,
2008-12-25,0.59, -0.69, 11.08, 2.12, 1.62, 7.79, repro,
2008-12-26,-1.56, 0.97, 9.57, 2.14, 1.63, 7.90, repro,
2008-12-27,0.35, 0.83, -2.61, 2.13, 1.62, 7.79, repro,
2008-12-28,0.10, 2.32, -6.51, 2.13, 1.61, 7.78, repro,
2008-12-29,1.28, 2.03, -7.67, 2.12, 1.63, 7.84, repro,
2008-12-30,0.01, 1.05, -11.38, 2.14, 1.63, 7.86, repro,
2008-12-31,-0.65, -0.14, -9.91, 2.11, 1.61, 7.74, repro,
2009-01-01,-1.37, 0.60, 2.08, 2.12, 1.59, 7.71, repro,
2009-01-02,-1.25, 0.40, -0.19, 2.15, 1.63, 7.93, repro,
2009-01-03,-0.41, 0.80, -0.95, 2.13, 1.61, 7.79, repro,
2009-01-04,-0.16, 0.17, -4.40, 2.12, 1.60, 7.69, repro,
2009-01-05,-1.09, 0.47, -2.76, 2.12, 1.60, 7.72, repro,
2009-01-06,-0.17, 1.77, -4.10, 2.12, 1.60, 7.76, repro,
2009-01-07,-0.82, 0.33, -5.87, 2.15, 1.61, 7.83, repro,
2009-01-08,0.07, -0.02, 1.66, 2.16, 1.64, 7.98, repro,
2009-01-09,-2.02, 0.98, -3.82, 2.13, 1.64, 7.91, repro,
2009-01-10,-0.39, 1.79, -12.16, 2.12, 1.61, 7.72, repro,
2009-01-11,-0.55, 1.79, -15.16, 2.15, 1.68, 8.03, repro,
2009-01-12,1.43, 2.18, -16.47, 2.14, 1.62, 7.89, repro,
2009-01-13,-0.78, 0.86, -18.23, 2.14, 1.62, 7.83, repro,
2009-01-14,0.48, 1.67, -8.06, 2.16, 1.70, 8.03, repro,
2009-01-15,-0.19, -0.23, -10.75, 2.13, 1.68, 7.91, repro,
2009-01-16,0.39, 2.48, -9.63, 2.11, 1.62, 7.78, repro,
2009-01-17,0.05, -0.07, -16.65, 2.17, 1.71, 8.01, repro,
2009-01-18,-1.20, -0.63, -8.72, 2.13, 1.63, 7.90, repro,
2009-01-19,-0.36, 1.28, -8.03, 2.12, 1.61, 7.76, repro,
2009-01-20,-1.37, 1.48, -7.83, 2.12, 1.62, 7.77, repro,
2009-01-21,-0.44, 1.31, -6.17, 2.12, 1.63, 7.85, repro,
2009-01-22,-0.40, 1.53, -8.66, 2.12, 1.62, 7.84, repro,
2009-01-23,-1.68, 0.97, -12.50, 2.12, 1.62, 7.79, repro,
2009-01-24,-2.48, -1.60, -9.90, 2.10, 1.62, 7.75, repro,
2009-01-25,-0.54, -0.04, -10.37, 2.12, 1.64, 7.89, repro,
2009-01-26,-1.09, 0.57, -11.15, 2.10, 1.62, 7.72, repro,
2009-01-27,-0.09, 2.39, -9.99, 2.13, 1.62, 7.79, repro,
2009-01-28,-1.43, 1.73, -14.88, 2.18, 1.67, 8.02, repro,
2009-01-29,-1.24, 2.79, -10.79, 2.11, 1.63, 7.82, repro,
2009-01-30,-1.00, 1.31, -8.89, 2.09, 1.62, 7.72, repro,
2009-01-31,0.59, 1.37, -5.24, 2.16, 1.70, 7.88, repro,
2009-02-01,-2.31, 0.66, -8.59, 2.11, 1.61, 7.69, repro,
2009-02-02,-0.24, 1.65, -7.94, 2.15, 1.64, 7.85, repro,
2009-02-03,0.18, 1.23, -13.22, 2.18, 1.72, 8.06, repro,
2009-02-04,-2.53, 0.88, -4.22, 2.10, 1.63, 7.74, repro,
2009-02-05,-2.38, -0.56, -5.88, 2.12, 1.66, 7.85, repro,
2009-02-06,-2.15, -1.14, -9.27, 2.20, 1.72, 8.13, repro,
2009-02-07,-0.85, 1.41, -4.10, 2.14, 1.67, 7.92, repro,
2009-02-08,-2.45, 1.12, -6.05, 2.15, 1.66, 7.85, repro,
2009-02-09,-1.70, -0.80, 1.39, 2.11, 1.62, 7.75, repro,
2009-02-10,-0.99, -0.22, -1.01, 2.11, 1.65, 7.81, repro,
2009-02-11,-1.25, -1.40, -7.44, 2.18, 1.72, 8.10, repro,
2009-02-12,-1.25, 1.44, -1.13, 2.17, 1.68, 7.94, repro,
2009-02-13,-0.55, 1.16, -2.86, 2.14, 1.67, 7.95, repro,
2009-02-14,-1.54, -1.05, 1.67, 2.09, 1.60, 7.64, repro,
2009-02-15,-0.93, 2.00, -0.78, 2.13, 1.67, 8.02, repro,
2009-02-16,-2.21, -0.13, 5.51, 2.11, 1.62, 7.74, repro,
2009-02-17,-2.58, 0.52, 1.70, 2.16, 1.62, 7.82, repro,
2009-02-18,-2.87, 1.71, -2.35, 2.09, 1.62, 7.65, repro,
2009-02-19,-3.51, -0.33, -6.61, 2.17, 1.70, 8.09, repro,
2009-02-20,-2.71, 0.54, -14.45, 2.13, 1.67, 8.07, repro,
2009-02-21,-1.13, -0.79, -5.19, 2.14, 1.69, 8.10, repro,
2009-02-22,-0.69, 1.65, 7.02, 2.12, 1.64, 7.81, repro,
2009-02-23,2.27, 2.89, -6.08, 2.16, 1.68, 7.97, repro,
2009-02-24,-1.42, 2.01, -11.02, 2.61, 2.17, 9.61, repro,
2009-02-25,-2.59, -0.43, -12.72, 203.52, 113.89, 238.57, repro,
2009-02-26,-1.36, -0.54, 3.63, 2.15, 1.70, 8.01, repro,
2009-02-27,-1.51, 1.72, -14.01, 2.14, 1.72, 8.14, repro,
2009-02-28,-1.84, 0.92, -7.03, 2.14, 1.67, 7.99, repro,
2009-03-01,-0.02, 2.80, -11.18, 2.13, 1.69, 7.97, repro,
2009-03-02,-5.13, 3.42, -18.20, 2.12, 1.69, 7.84, repro,
2009-03-03,-3.53, -0.52, -10.17, 2.20, 1.74, 8.20, repro,
2009-03-04,-3.03, 0.07, -2.67, 2.13, 1.66, 7.90, repro,
2009-03-05,-0.84, 0.58, -6.93, 2.14, 1.71, 8.09, repro,
2009-03-06,-0.89, 2.16, -11.38, 2.19, 1.76, 8.28, repro,
2009-03-07,-0.31, 1.66, -7.62, 2.14, 1.71, 7.92, repro,
2009-03-08,-0.11, 2.08, -12.06, 2.11, 1.63, 7.62, repro,
2009-03-09,0.49, 0.87, -9.85, 2.14, 1.69, 7.98, repro,
2009-03-10,-1.85, -0.10, -3.97, 2.11, 1.66, 7.82, repro,
2009-03-11,-0.03, 0.25, -9.71, 2.10, 1.65, 7.68, repro,
2009-03-12,-0.79, 0.67, -14.11, 2.13, 1.68, 7.93, repro,
2009-03-13,-0.68, 2.17, -10.76, 2.12, 1.71, 7.85, repro,
2009-03-14,-0.75, 0.94, 1.89, 2.15, 1.67, 7.77, repro,
2009-03-15,-1.97, -2.61, 0.37, 2.11, 1.69, 7.87, repro,
2009-03-16,-0.65, -1.94, -5.07, 2.10, 1.66, 7.78, repro,
2009-03-17,-1.87, -0.16, 3.22, 2.13, 1.69, 7.92, repro,
2009-03-18,-1.07, 0.13, -8.36, 2.10, 1.66, 7.70, repro,
2009-03-19,-2.26, 0.75, -6.85, 2.10, 1.63, 7.66, repro,
2009-03-20,-0.05, 0.67, 0.80, 2.15, 1.67, 7.88, repro,
2009-03-21,0.16, -0.02, -0.98, 2.13, 1.69, 7.91, repro,
2009-03-22,-0.86, -1.06, 1.02, 2.13, 1.69, 7.88, repro,
2009-03-23,-0.16, 0.77, -6.03, 2.10, 1.66, 7.75, repro,
2009-03-24,-1.30, 1.75, -10.35, 2.12, 1.65, 7.74, repro,
2009-03-25,-0.74, 0.45, -2.14, 2.13, 1.65, 7.73, repro,
2009-03-26,0.21, 0.26, -3.20, 2.11, 1.69, 7.83, repro,
2009-03-27,-0.10, 0.05, -9.05, 2.16, 1.66, 7.86, repro,
2009-03-28,-0.20, 0.19, -6.26, 2.16, 1.67, 7.88, repro,
2009-03-29,0.38, -0.16, -9.29, 2.14, 1.65, 7.86, repro,
2009-03-30,-1.06, 0.43, -4.26, 2.16, 1.66, 7.84, repro,
2009-03-31,-1.01, -0.35, -8.41, 2.16, 1.66, 7.88, repro,
2009-04-01,0.01, 0.73, -0.88, 2.16, 1.66, 7.83, repro,
2009-04-02,0.43, -0.29, -8.06, 2.22, 1.70, 8.13, repro,
2009-04-03,-0.20, -0.10, -6.16, 2.23, 1.72, 8.18, repro,
2009-04-04,-1.82, 0.88, -7.70, 2.13, 1.63, 7.72, repro,
2009-04-05,0.24, 1.35, -10.26, 2.14, 1.62, 7.68, repro,
2009-04-06,0.11, 1.01, -13.97, 2.16, 1.64, 7.81, repro,
2009-04-07,0.89, 0.14, -10.43, 2.15, 1.64, 7.74, repro,
2009-04-08,0.31, 1.66, -2.66, 2.15, 1.64, 7.74, repro,
2009-04-09,-1.60, 0.52, 3.02, 2.18, 1.66, 7.76, repro,
2009-04-10,-1.12, 1.19, -4.90, 2.14, 1.62, 7.63, repro,
2009-04-11,-1.44, 1.19, -2.29, 2.21, 1.67, 7.86, repro,
2009-04-12,0.19, 0.21, -8.63, 2.21, 1.67, 7.93, repro,
2009-04-13,-0.55, 1.15, -12.29, 2.21, 1.68, 7.83, repro,
2009-04-14,0.35, -2.05, -6.08, 2.34, 1.86, 8.56, repro,
2009-04-15,-0.91, 1.76, -2.63, 2.22, 1.69, 7.90, repro,
2009-04-16,-0.62, -0.14, -8.35, 2.17, 1.63, 7.68, repro,
2009-04-17,-0.22, 1.43, -9.98, 2.17, 1.64, 7.78, repro,
2009-04-18,-0.15, 2.33, -8.35, 2.19, 1.65, 7.84, repro,
2009-04-19,-0.63, 1.82, -7.57, 2.18, 1.65, 7.83, repro,
2009-04-20,-0.41, 1.24, -11.77, 2.17, 1.64, 7.74, repro,
2009-04-21,-1.02, 0.59, -6.29, 2.19, 1.64, 7.78, repro,
2009-04-22,0.89, 1.19, -4.89, 2.23, 1.65, 7.76, repro,
2009-04-23,-0.04, 0.82, -6.58, 2.20, 1.66, 7.72, repro,
2009-04-24,-0.44, 1.71, -7.67, 2.22, 1.66, 7.81, repro,
2009-04-25,-1.27, 0.24, -6.30, 2.20, 1.65, 7.87, repro,
2009-04-26,-2.06, -0.18, -9.56, 2.19, 1.64, 7.76, repro,
2009-04-27,-0.26, 2.08, -4.96, 2.18, 1.62, 7.62, repro,
2009-04-28,-0.91, 1.44, 0.68, 2.21, 1.65, 7.71, repro,
2009-04-29,0.67, 2.62, -7.44, 2.26, 1.74, 8.10, repro,
2009-04-30,-0.91, 1.65, -10.23, 2.28, 1.75, 8.22, repro,
2009-05-01,-0.31, 1.69, -10.96, 2.25, 1.69, 7.98, repro,
2009-05-02,-1.37, 1.34, -11.21, 2.20, 1.66, 7.89, repro,
2009-05-03,1.50, 2.99, -4.49, 2.22, 1.64, 7.87, repro,
2009-05-04,0.23, -0.21, -0.95, 2.25, 1.67, 7.96, repro,
2009-05-05,1.58, 2.64, 2.06, 2.20, 1.64, 7.88, repro,
2009-05-06,0.43, -3.36, -5.09, 2.21, 1.65, 7.99, repro,
2009-05-07,-0.04, 0.70, -11.53, 2.18, 1.68, 8.01, repro,
2009-05-08,-0.79, 1.57, -12.18, 2.19, 1.65, 7.90, repro,
2009-05-09,0.47, 2.96, -6.46, 2.19, 1.64, 7.92, repro,
2009-05-10,0.17, 0.79, -11.23, 2.18, 1.64, 7.91, repro,
2009-05-11,-1.30, 1.27, -3.62, 2.15, 1.63, 7.84, repro,
2009-05-12,-1.79, 0.51, -3.43, 2.23, 1.67, 8.17, repro,
2009-05-13,-0.81, 1.02, -2.11, 2.24, 1.69, 8.16, repro,
2009-05-14,-0.89, -0.11, -8.88, 2.17, 1.63, 7.84, repro,
2009-05-15,0.64, 1.41, -4.80, 2.19, 1.64, 7.95, repro,
2009-05-16,0.71, 2.13, -13.26, 2.17, 1.63, 7.92, repro,
2009-05-17,-0.34, 1.06, -12.91, 2.18, 1.64, 7.99, repro,
2009-05-18,0.77, 0.64, -8.71, 2.24, 1.66, 8.10, repro,
2009-05-19,-1.97, 2.28, -10.83, 2.22, 1.69, 8.27, repro,
2009-05-20,1.35, 0.33, -3.26, 2.22, 1.65, 8.15, repro,
2009-05-21,-0.73, 1.65, -3.68, 2.19, 1.63, 7.96, repro,
2009-05-22,-0.07, 2.24, -5.82, 2.18, 1.63, 8.03, repro,
2009-05-23,-0.24, 1.61, -4.17, 2.17, 1.62, 7.93, repro,
2009-05-24,-1.07, 1.62, -4.08, 2.17, 1.63, 7.92, repro,
2009-05-25,-0.38, 4.29, 1.26, 2.18, 1.65, 8.03, repro,
2009-05-26,0.12, 1.63, -3.64, 2.26, 1.68, 8.34, repro,
2009-05-27,0.81, 3.33, -2.48, 2.18, 1.64, 8.06, repro,
2009-05-28,-0.68, 1.26, 1.92, 2.18, 1.64, 8.08, repro,
2009-05-29,-0.66, 2.85, -4.56, 2.19, 1.63, 7.97, repro,
2009-05-30,-0.82, 2.09, 5.75, 2.17, 1.62, 7.88, repro,
2009-05-31,-0.53, 2.47, 4.57, 2.21, 1.67, 8.10, repro,
2009-06-01,-1.74, 1.63, 6.11, 2.18, 1.63, 7.97, repro,
2009-06-02,0.71, 0.82, -6.66, 2.17, 1.63, 7.94, repro,
2009-06-03,1.47, 3.04, -1.81, 2.20, 1.64, 8.16, repro,
2009-06-04,0.20, -0.19, -1.18, 2.19, 1.64, 8.05, repro,
2009-06-05,-0.08, 3.08, -3.03, 2.17, 1.64, 7.95, repro,
2009-06-06,0.83, 0.26, 0.37, 2.23, 1.68, 8.21, repro,
2009-06-07,0.01, 2.50, -3.02, 2.19, 1.63, 8.04, repro,
2009-06-08,1.73, 1.72, -1.03, 2.18, 1.62, 7.95, repro,
2009-06-09,0.48, 1.95, 2.59, 2.16, 1.61, 7.89, repro,
2009-06-10,0.46, 0.19, 5.74, 2.16, 1.63, 7.90, repro,
2009-06-11,-1.25, 3.86, 1.31, 2.23, 1.72, 8.27, repro,
2009-06-12,-1.36, 2.08, -3.27, 2.21, 1.68, 8.07, repro,
2009-06-13,-0.79, 1.87, 0.66, 2.21, 1.67, 8.13, repro,
2009-06-14,0.61, 2.15, -6.96, 2.31, 1.69, 8.43, repro,
2009-06-15,1.32, 1.24, 1.27, 2.20, 1.67, 8.08, repro,
2009-06-16,0.65, 3.39, 7.30, 2.18, 1.62, 7.96, repro,
2009-06-17,-1.01, 1.62, 3.65, 2.19, 1.63, 7.96, repro,
2009-06-18,0.98, 2.53, -1.56, 2.19, 1.62, 7.93, repro,
2009-06-19,1.83, 1.38, -5.03, 2.19, 1.63, 7.99, repro,
2009-06-20,0.23, -0.56, 4.13, 2.18, 1.65, 8.07, repro,
2009-06-21,0.57, 1.15, 0.27, 2.19, 1.64, 7.99, repro,
2009-06-22,-1.35, 2.08, -2.14, 2.16, 1.64, 7.90, repro,
2009-06-23,0.33, 1.77, 3.86, 2.25, 1.68, 8.19, repro,
2009-06-24,0.92, 4.09, -1.74, 2.19, 1.63, 7.94, repro,
2009-06-25,3.68, 1.37, -0.06, 2.27, 1.74, 8.38, repro,
2009-06-26,-0.67, 0.89, 1.66, 2.22, 1.69, 8.07, repro,